Time,TemperatureF,DewpointF,PressureIn,WindDirection,WindDirectionDegrees,WindSpeedMPH,WindSpeedGustMPH,Humidity,HourlyPrecipIn,Conditions,Clouds,dailyrainin,SoftwareType,DateUTC
2013-03-08 00:05:00,30.4,29.4,30.38,NE,37,0.0,2.0,96,0.00,,,0.00,Wunderground v.1.15,2013-03-08 05:05:00,
2013-03-08 00:10:00,30.4,29.4,30.38,NE,37,0.0,2.0,96,0.00,,,0.00,Wunderground v.1.15,2013-03-08 05:10:00,
2013-03-08 00:19:00,30.1,29.4,30.38,NE,37,0.0,2.0,97,0.00,,,0.00,Wunderground v.1.15,2013-03-08 05:19:00,
2013-03-08 00:25:00,30.2,29.5,30.38,NE,37,0.0,2.0,97,0.00,,,0.00,Wunderground v.1.15,2013-03-08 05:25:00,
2013-03-08 00:34:00,29.8,29.1,30.38,NE,37,0.0,2.0,97,0.00,,,0.00,Wunderground v.1.15,2013-03-08 05:34:00,
2013-03-08 00:39:00,29.7,29.0,30.38,NE,37,0.0,2.0,97,0.00,,,0.00,Wunderground v.1.15,2013-03-08 05:39:00,
2013-03-08 00:44:00,29.6,28.9,30.38,NE,37,0.0,2.0,97,0.00,,,0.00,Wunderground v.1.15,2013-03-08 05:44:00,
2013-03-08 00:50:00,29.6,28.9,30.38,NE,37,0.0,2.0,97,0.00,,,0.00,Wunderground v.1.15,2013-03-08 05:50:00,
2013-03-08 01:00:00,29.5,28.8,30.38,NE,37,0.0,2.0,97,0.00,,,0.00,Wunderground v.1.15,2013-03-08 06:00:00,
2013-03-08 01:05:00,29.4,28.7,30.38,NE,37,0.0,2.0,97,0.00,,,0.00,Wunderground v.1.15,2013-03-08 06:05:00,
2013-03-08 01:15:00,29.3,28.6,30.38,NE,37,0.0,2.0,97,0.00,,,0.00,Wunderground v.1.15,2013-03-08 06:15:00,
2013-03-08 01:24:00,29.8,29.1,30.38,NE,37,0.0,2.0,97,0.00,,,0.00,Wunderground v.1.15,2013-03-08 06:24:00,
2013-03-08 01:35:00,29.7,29.0,30.39,NE,37,0.0,2.0,97,0.00,,,0.00,Wunderground v.1.15,2013-03-08 06:35:00,
2013-03-08 01:45:00,29.7,29.0,30.39,NE,37,0.0,2.0,97,0.00,,,0.00,Wunderground v.1.15,2013-03-08 06:45:00,
2013-03-08 01:55:00,29.6,28.9,30.39,NE,37,0.0,2.0,97,0.00,,,0.00,Wunderground v.1.15,2013-03-08 06:55:00,
2013-03-08 02:05:00,29.2,28.5,30.39,NE,37,0.0,2.0,97,0.00,,,0.00,Wunderground v.1.15,2013-03-08 07:05:00,
2013-03-08 02:15:00,28.9,28.2,30.39,NE,37,0.0,2.0,97,0.00,,,0.00,Wunderground v.1.15,2013-03-08 07:15:00,
2013-03-08 02:25:00,28.5,27.8,30.39,NE,37,0.0,2.0,97,0.00,,,0.00,Wunderground v.1.15,2013-03-08 07:25:00,
2013-03-08 02:34:00,28.6,27.9,30.39,NE,37,0.0,2.0,97,0.00,,,0.00,Wunderground v.1.15,2013-03-08 07:34:00,
2013-03-08 02:45:00,28.7,28.0,30.39,NE,37,0.0,2.0,97,0.00,,,0.00,Wunderground v.1.15,2013-03-08 07:45:00,
2013-03-08 02:54:00,28.6,27.9,30.39,NE,37,0.0,2.0,97,0.00,,,0.00,Wunderground v.1.15,2013-03-08 07:54:00,
2013-03-08 03:04:00,28.4,27.7,30.39,NE,37,0.0,2.0,97,0.00,,,0.00,Wunderground v.1.15,2013-03-08 08:04:00,
2013-03-08 03:10:00,28.3,27.6,30.39,NE,37,0.0,2.0,97,0.00,,,0.00,Wunderground v.1.15,2013-03-08 08:10:00,
2013-03-08 03:19:00,28.1,27.4,30.39,NE,37,0.0,2.0,97,0.00,,,0.00,Wunderground v.1.15,2013-03-08 08:19:00,
2013-03-08 03:25:00,28.0,27.3,30.39,NE,37,0.0,2.0,97,0.00,,,0.00,Wunderground v.1.15,2013-03-08 08:25:00,
2013-03-08 03:35:00,27.8,27.1,30.39,NE,37,0.0,2.0,97,0.00,,,0.00,Wunderground v.1.15,2013-03-08 08:35:00,
2013-03-08 03:40:00,27.6,26.9,30.38,NE,37,0.0,2.0,97,0.00,,,0.00,Wunderground v.1.15,2013-03-08 08:40:00,
2013-03-08 03:49:00,27.4,26.7,30.38,NE,37,0.0,2.0,97,0.00,,,0.00,Wunderground v.1.15,2013-03-08 08:49:00,
2013-03-08 03:55:00,27.3,26.6,30.39,NE,37,0.0,2.0,97,0.00,,,0.00,Wunderground v.1.15,2013-03-08 08:55:00,
2013-03-08 04:05:00,27.1,26.4,30.39,NE,37,0.0,2.0,97,0.00,,,0.00,Wunderground v.1.15,2013-03-08 09:05:00,
2013-03-08 04:15:00,26.8,26.1,30.39,NE,37,0.0,2.0,97,0.00,,,0.00,Wunderground v.1.15,2013-03-08 09:15:00,
2013-03-08 04:20:00,26.8,26.1,30.40,NE,37,0.0,2.0,97,0.00,,,0.00,Wunderground v.1.15,2013-03-08 09:20:00,
2013-03-08 04:30:00,26.7,26.0,30.40,NE,37,0.0,2.0,97,0.00,,,0.00,Wunderground v.1.15,2013-03-08 09:30:00,
2013-03-08 04:39:00,26.7,26.0,30.40,NE,37,0.0,2.0,97,0.00,,,0.00,Wunderground v.1.15,2013-03-08 09:39:00,
2013-03-08 04:50:00,26.5,25.8,30.40,NE,37,0.0,2.0,97,0.00,,,0.00,Wunderground v.1.15,2013-03-08 09:50:00,
2013-03-08 04:59:00,26.2,25.5,30.41,NE,37,0.0,2.0,97,0.00,,,0.00,Wunderground v.1.15,2013-03-08 09:59:00,
2013-03-08 05:05:00,26.1,25.4,30.41,NE,37,0.0,2.0,97,0.00,,,0.00,Wunderground v.1.15,2013-03-08 10:05:00,
2013-03-08 05:15:00,25.9,25.2,30.41,NE,37,0.0,2.0,97,0.00,,,0.00,Wunderground v.1.15,2013-03-08 10:15:00,
2013-03-08 05:24:00,25.7,25.0,30.41,NE,37,0.0,2.0,97,0.00,,,0.00,Wunderground v.1.15,2013-03-08 10:24:00,
2013-03-08 05:30:00,25.6,24.9,30.41,NE,37,0.0,2.0,97,0.00,,,0.00,Wunderground v.1.15,2013-03-08 10:30:00,
2013-03-08 05:40:00,25.7,25.0,30.42,NE,37,0.0,2.0,97,0.00,,,0.00,Wunderground v.1.15,2013-03-08 10:40:00,
2013-03-08 05:49:00,25.6,24.9,30.42,NE,37,0.0,2.0,97,0.00,,,0.00,Wunderground v.1.15,2013-03-08 10:49:00,
2013-03-08 05:55:00,25.5,24.8,30.42,NE,37,0.0,2.0,97,0.00,,,0.00,Wunderground v.1.15,2013-03-08 10:55:00,
2013-03-08 06:05:00,25.2,24.5,30.43,NE,37,0.0,2.0,97,0.00,,,0.00,Wunderground v.1.15,2013-03-08 11:05:00,
2013-03-08 06:14:00,25.1,24.4,30.43,NE,37,0.0,2.0,97,0.00,,,0.00,Wunderground v.1.15,2013-03-08 11:14:00,
2013-03-08 06:25:00,25.0,24.3,30.44,NE,37,0.0,2.0,97,0.00,,,0.00,Wunderground v.1.15,2013-03-08 11:25:00,
2013-03-08 06:35:00,24.9,24.2,30.45,NE,37,0.0,2.0,97,0.00,,,0.00,Wunderground v.1.15,2013-03-08 11:35:00,
2013-03-08 06:44:00,24.7,23.7,30.45,NE,37,0.0,2.0,96,0.00,,,0.00,Wunderground v.1.15,2013-03-08 11:44:00,
2013-03-08 06:50:00,24.5,23.5,30.45,NE,37,0.0,2.0,96,0.00,,,0.00,Wunderground v.1.15,2013-03-08 11:50:00,
2013-03-08 06:59:00,24.3,23.3,30.46,NE,37,0.0,2.0,96,0.00,,,0.00,Wunderground v.1.15,2013-03-08 11:59:00,
2013-03-08 07:04:00,24.3,23.3,30.46,NE,37,0.0,2.0,96,0.00,,,0.00,Wunderground v.1.15,2013-03-08 12:04:00,
2013-03-08 07:09:00,24.3,23.6,30.46,NE,37,0.0,2.0,97,0.00,,,0.00,Wunderground v.1.15,2013-03-08 12:09:00,
2013-03-08 07:20:00,24.4,23.7,30.46,NE,37,0.0,2.0,97,0.00,,,0.00,Wunderground v.1.15,2013-03-08 12:20:00,
2013-03-08 07:30:00,24.3,23.3,30.46,NE,37,0.0,2.0,96,0.00,,,0.00,Wunderground v.1.15,2013-03-08 12:30:00,
2013-03-08 07:39:00,24.6,23.9,30.46,NE,37,0.0,2.0,97,0.00,,,0.00,Wunderground v.1.15,2013-03-08 12:39:00,
2013-03-08 07:45:00,25.1,24.4,30.46,NE,37,0.0,2.0,97,0.00,,,0.00,Wunderground v.1.15,2013-03-08 12:45:00,
2013-03-08 07:54:00,26.1,25.4,30.46,NE,37,0.0,2.0,97,0.00,,,0.00,Wunderground v.1.15,2013-03-08 12:54:00,
2013-03-08 08:00:00,26.6,25.9,30.46,NE,37,0.0,2.0,97,0.00,,,0.00,Wunderground v.1.15,2013-03-08 13:00:00,
2013-03-08 08:10:00,27.7,27.0,30.46,NE,37,0.0,2.0,97,0.00,,,0.00,Wunderground v.1.15,2013-03-08 13:10:00,
2013-03-08 08:19:00,28.2,27.5,30.46,NE,37,0.0,2.0,97,0.00,,,0.00,Wunderground v.1.15,2013-03-08 13:19:00,
2013-03-08 08:30:00,29.5,28.8,30.46,NE,37,0.0,2.0,97,0.00,,,0.00,Wunderground v.1.15,2013-03-08 13:30:00,
2013-03-08 08:40:00,31.0,30.5,30.47,NE,37,0.0,2.0,98,0.00,,,0.00,Wunderground v.1.15,2013-03-08 13:40:00,
2013-03-08 08:50:00,31.6,30.6,30.47,NE,37,0.0,2.0,96,0.00,,,0.00,Wunderground v.1.15,2013-03-08 13:50:00,
2013-03-08 09:00:00,33.5,32.5,30.47,SE,145,0.0,2.0,96,0.00,,,0.00,Wunderground v.1.15,2013-03-08 14:00:00,
2013-03-08 09:05:00,34.8,34.0,30.47,SE,144,0.0,2.0,97,0.00,,,0.00,Wunderground v.1.15,2013-03-08 14:05:00,
2013-03-08 09:10:00,35.9,34.9,30.47,SW,215,0.0,2.0,96,0.00,,,0.00,Wunderground v.1.15,2013-03-08 14:10:00,
2013-03-08 09:20:00,36.1,32.9,30.47,ESE,105,1.0,2.0,88,0.00,,,0.00,Wunderground v.1.15,2013-03-08 14:20:00,
2013-03-08 09:29:00,36.6,32.8,30.47,ESE,108,1.0,1.0,86,0.00,,,0.00,Wunderground v.1.15,2013-03-08 14:29:00,
2013-03-08 09:34:00,37.1,32.1,30.47,ESE,102,1.0,2.0,82,0.00,,,0.00,Wunderground v.1.15,2013-03-08 14:34:00,
2013-03-08 09:40:00,38.0,32.4,30.48,NE,37,1.0,2.0,80,0.00,,,0.00,Wunderground v.1.15,2013-03-08 14:40:00,
2013-03-08 09:49:00,38.4,31.8,30.48,NNE,31,1.0,3.0,77,0.00,,,0.01,Wunderground v.1.15,2013-03-08 14:49:00,
2013-03-08 09:54:00,38.5,31.6,30.48,NE,42,2.0,3.0,76,0.00,,,0.01,Wunderground v.1.15,2013-03-08 14:54:00,
2013-03-08 10:05:00,38.6,31.4,30.47,East,96,2.0,2.0,75,0.00,,,0.02,Wunderground v.1.15,2013-03-08 15:05:00,
2013-03-08 10:14:00,38.7,30.1,30.47,NE,47,2.0,3.0,71,0.00,,,0.02,Wunderground v.1.15,2013-03-08 15:14:00,
2013-03-08 10:24:00,39.2,31.6,30.47,ENE,63,2.0,3.0,74,0.00,,,0.03,Wunderground v.1.15,2013-03-08 15:24:00,
2013-03-08 10:30:00,39.5,30.9,30.47,NE,51,2.0,2.0,71,0.00,,,0.03,Wunderground v.1.15,2013-03-08 15:30:00,
2013-03-08 10:39:00,39.0,31.1,30.47,East,96,2.0,2.0,73,0.00,,,0.03,Wunderground v.1.15,2013-03-08 15:39:00,
2013-03-08 10:44:00,39.6,31.3,30.46,SE,129,2.0,2.0,72,0.00,,,0.04,Wunderground v.1.15,2013-03-08 15:44:00,
2013-03-08 10:50:00,40.3,31.6,30.46,East,92,1.0,2.0,71,0.00,,,0.04,Wunderground v.1.15,2013-03-08 15:50:00,
2013-03-08 11:00:00,41.0,32.3,30.47,NE,46,2.0,4.0,71,0.00,,,0.04,Wunderground v.1.15,2013-03-08 16:00:00,
2013-03-08 11:05:00,41.0,31.6,30.46,ENE,63,2.0,4.0,69,0.00,,,0.05,Wunderground v.1.15,2013-03-08 16:05:00,
2013-03-08 11:14:00,41.2,31.4,30.46,NNE,30,3.0,5.0,68,0.00,,,0.05,Wunderground v.1.15,2013-03-08 16:14:00,
2013-03-08 11:20:00,41.1,31.7,30.46,NNE,25,3.0,3.0,69,0.00,,,0.05,Wunderground v.1.15,2013-03-08 16:20:00,
2013-03-08 11:29:00,41.1,30.2,30.46,WNW,290,3.0,3.0,65,0.00,,,0.05,Wunderground v.1.15,2013-03-08 16:29:00,
2013-03-08 11:35:00,41.5,31.0,30.46,ENE,69,3.0,3.0,66,0.00,,,0.05,Wunderground v.1.15,2013-03-08 16:35:00,
2013-03-08 11:44:00,42.2,31.6,30.46,ENE,62,2.0,3.0,66,0.00,,,0.05,Wunderground v.1.15,2013-03-08 16:44:00,
2013-03-08 11:54:00,42.5,31.6,30.45,NW,323,3.0,5.0,65,0.00,,,0.05,Wunderground v.1.15,2013-03-08 16:54:00,
2013-03-08 11:59:00,42.8,29.5,30.45,East,86,2.0,2.0,59,0.00,,,0.05,Wunderground v.1.15,2013-03-08 16:59:00,
2013-03-08 12:10:00,43.2,31.1,30.45,East,94,3.0,5.0,62,0.00,,,0.05,Wunderground v.1.15,2013-03-08 17:10:00,
2013-03-08 12:20:00,43.4,30.4,30.44,WNW,284,2.0,2.0,60,0.00,,,0.05,Wunderground v.1.15,2013-03-08 17:20:00,
2013-03-08 12:29:00,44.1,30.3,30.44,East,82,2.0,2.0,58,0.00,,,0.05,Wunderground v.1.15,2013-03-08 17:29:00,
2013-03-08 12:35:00,44.6,29.0,30.44,NE,37,1.0,4.0,54,0.00,,,0.05,Wunderground v.1.15,2013-03-08 17:35:00,
2013-03-08 12:40:00,44.6,29.9,30.44,ENE,65,2.0,2.0,56,0.00,,,0.05,Wunderground v.1.15,2013-03-08 17:40:00,
2013-03-08 12:50:00,44.9,28.8,30.44,ENE,68,1.0,2.0,53,0.00,,,0.05,Wunderground v.1.15,2013-03-08 17:50:00,
2013-03-08 12:59:00,44.4,28.8,30.44,ENE,61,3.0,3.0,54,0.00,,,0.05,Wunderground v.1.15,2013-03-08 17:59:00,
2013-03-08 13:05:00,44.5,29.8,30.44,ENE,72,2.0,4.0,56,0.00,,,0.05,Wunderground v.1.15,2013-03-08 18:05:00,
2013-03-08 13:15:00,44.8,30.5,30.43,NE,55,2.0,7.0,57,0.00,,,0.05,Wunderground v.1.15,2013-03-08 18:15:00,
2013-03-08 13:24:00,45.2,30.0,30.43,NE,44,2.0,8.0,55,0.00,,,0.05,Wunderground v.1.15,2013-03-08 18:24:00,
2013-03-08 13:30:00,44.8,29.2,30.43,South,177,2.0,2.0,54,0.00,,,0.05,Wunderground v.1.15,2013-03-08 18:30:00,
2013-03-08 13:39:00,44.9,26.9,30.43,NE,46,2.0,7.0,49,0.00,,,0.05,Wunderground v.1.15,2013-03-08 18:39:00,
2013-03-08 13:45:00,45.1,29.0,30.43,ENE,60,3.0,7.0,53,0.00,,,0.05,Wunderground v.1.15,2013-03-08 18:45:00,
2013-03-08 13:55:00,45.5,27.9,30.43,SE,138,2.0,3.0,50,0.00,,,0.05,Wunderground v.1.15,2013-03-08 18:55:00,
2013-03-08 14:04:00,46.4,27.2,30.43,ENE,75,2.0,2.0,47,0.00,,,0.05,Wunderground v.1.15,2013-03-08 19:04:00,
2013-03-08 14:15:00,46.6,26.9,30.42,South,183,1.0,2.0,46,0.00,,,0.05,Wunderground v.1.15,2013-03-08 19:15:00,
2013-03-08 14:24:00,46.8,27.1,30.42,SW,225,2.0,2.0,46,0.00,,,0.05,Wunderground v.1.15,2013-03-08 19:24:00,
2013-03-08 14:30:00,46.9,28.7,30.41,SSW,207,2.0,3.0,49,0.00,,,0.05,Wunderground v.1.15,2013-03-08 19:30:00,
2013-03-08 14:40:00,48.0,29.7,30.41,NE,37,2.0,3.0,49,0.00,,,0.05,Wunderground v.1.15,2013-03-08 19:40:00,
2013-03-08 14:49:00,47.5,30.3,30.41,WNW,288,1.0,3.0,51,0.00,,,0.05,Wunderground v.1.15,2013-03-08 19:49:00,
2013-03-08 14:59:00,47.2,29.0,30.41,ENE,65,2.0,2.0,49,0.00,,,0.05,Wunderground v.1.15,2013-03-08 19:59:00,
2013-03-08 15:05:00,47.2,28.5,30.41,NNE,20,2.0,2.0,48,0.00,,,0.05,Wunderground v.1.15,2013-03-08 20:05:00,
2013-03-08 15:15:00,47.0,28.3,30.40,NNE,21,2.0,2.0,48,0.00,,,0.05,Wunderground v.1.15,2013-03-08 20:15:00,
2013-03-08 15:24:00,47.2,29.0,30.40,NE,34,1.0,3.0,49,0.00,,,0.05,Wunderground v.1.15,2013-03-08 20:24:00,
2013-03-08 15:35:00,47.2,26.9,30.40,SSW,211,1.0,2.0,45,0.00,,,0.05,Wunderground v.1.15,2013-03-08 20:35:00,
2013-03-08 15:45:00,47.1,28.4,30.40,ENE,77,2.0,4.0,48,0.00,,,0.05,Wunderground v.1.15,2013-03-08 20:45:00,
2013-03-08 15:54:00,46.8,28.6,30.40,WSW,256,2.0,2.0,49,0.00,,,0.05,Wunderground v.1.15,2013-03-08 20:54:00,
2013-03-08 16:04:00,46.5,27.8,30.39,NNE,30,1.0,6.0,48,0.00,,,0.05,Wunderground v.1.15,2013-03-08 21:04:00,
2013-03-08 16:10:00,46.3,27.7,30.38,NNE,32,3.0,3.0,48,0.00,,,0.05,Wunderground v.1.15,2013-03-08 21:10:00,
2013-03-08 16:15:00,46.2,27.1,30.38,NE,34,4.0,6.0,47,0.00,,,0.05,Wunderground v.1.15,2013-03-08 21:15:00,
2013-03-08 16:24:00,46.1,27.0,30.38,NE,36,2.0,3.0,47,0.00,,,0.05,Wunderground v.1.15,2013-03-08 21:24:00,
2013-03-08 16:35:00,46.5,27.3,30.38,ESE,114,1.0,2.0,47,0.00,,,0.05,Wunderground v.1.15,2013-03-08 21:35:00,
2013-03-08 16:44:00,46.0,25.8,30.38,NE,34,1.0,2.0,45,0.00,,,0.05,Wunderground v.1.15,2013-03-08 21:44:00,
2013-03-08 16:55:00,45.5,26.4,30.37,NE,54,2.0,3.0,47,0.00,,,0.05,Wunderground v.1.15,2013-03-08 21:55:00,
2013-03-08 17:05:00,45.0,27.0,30.37,NNE,33,2.0,3.0,49,0.00,,,0.05,Wunderground v.1.15,2013-03-08 22:05:00,
2013-03-08 17:15:00,44.8,25.8,30.37,ESE,119,1.0,2.0,47,0.00,,,0.05,Wunderground v.1.15,2013-03-08 22:15:00,
2013-03-08 17:25:00,43.8,30.4,30.37,North,352,1.0,2.0,59,0.00,,,0.05,Wunderground v.1.15,2013-03-08 22:25:00,
2013-03-08 17:35:00,42.7,28.5,30.37,North,354,0.0,2.0,57,0.00,,,0.05,Wunderground v.1.15,2013-03-08 22:35:00,
2013-03-08 17:44:00,42.4,27.8,30.37,NNE,30,1.0,2.0,56,0.00,,,0.05,Wunderground v.1.15,2013-03-08 22:44:00,
2013-03-08 17:54:00,41.1,29.5,30.37,WNW,288,1.0,2.0,63,0.00,,,0.05,Wunderground v.1.15,2013-03-08 22:54:00,
2013-03-08 18:05:00,40.0,29.9,30.37,WNW,288,1.0,2.0,67,0.00,,,0.05,Wunderground v.1.15,2013-03-08 23:05:00,
2013-03-08 18:14:00,39.4,29.7,30.38,WNW,296,1.0,2.0,68,0.00,,,0.05,Wunderground v.1.15,2013-03-08 23:14:00,
2013-03-08 18:25:00,38.8,29.1,30.38,WNW,297,1.0,2.0,68,0.00,,,0.05,Wunderground v.1.15,2013-03-08 23:25:00,
2013-03-08 18:35:00,38.7,29.8,30.38,WNW,297,1.0,2.0,70,0.00,,,0.05,Wunderground v.1.15,2013-03-08 23:35:00,
2013-03-08 18:44:00,37.9,29.7,30.38,WNW,288,1.0,2.0,72,0.00,,,0.05,Wunderground v.1.15,2013-03-08 23:44:00,
2013-03-08 18:50:00,37.6,29.7,30.38,WNW,291,1.0,1.0,73,0.00,,,0.05,Wunderground v.1.15,2013-03-08 23:50:00,
2013-03-08 19:00:00,37.1,29.2,30.38,WNW,291,0.0,2.0,73,0.00,,,0.05,Wunderground v.1.15,2013-03-09 00:00:00,
2013-03-08 19:09:00,36.4,29.2,30.38,WNW,297,1.0,1.0,75,0.00,,,0.05,Wunderground v.1.15,2013-03-09 00:09:00,
2013-03-08 19:20:00,35.8,29.0,30.38,WNW,293,0.0,2.0,76,0.00,,,0.05,Wunderground v.1.15,2013-03-09 00:20:00,
2013-03-08 19:25:00,35.3,28.2,30.39,WNW,293,0.0,2.0,75,0.00,,,0.05,Wunderground v.1.15,2013-03-09 00:25:00,
2013-03-08 19:35:00,34.8,28.0,30.40,WNW,293,0.0,2.0,76,0.00,,,0.05,Wunderground v.1.15,2013-03-09 00:35:00,
2013-03-08 19:44:00,34.0,27.9,30.40,WNW,293,0.0,2.0,78,0.00,,,0.05,Wunderground v.1.15,2013-03-09 00:44:00,
2013-03-08 19:55:00,33.4,27.6,30.40,WNW,293,0.0,2.0,79,0.00,,,0.05,Wunderground v.1.15,2013-03-09 00:55:00,
2013-03-08 20:05:00,32.5,27.6,30.40,WNW,293,0.0,2.0,82,0.00,,,0.05,Wunderground v.1.15,2013-03-09 01:05:00,
2013-03-08 20:10:00,32.1,27.2,30.40,WNW,293,0.0,2.0,82,0.00,,,0.05,Wunderground v.1.15,2013-03-09 01:10:00,
2013-03-08 20:19:00,31.3,26.7,30.40,WNW,293,0.0,2.0,83,0.00,,,0.05,Wunderground v.1.15,2013-03-09 01:19:00,
2013-03-08 20:25:00,31.0,26.7,30.40,WNW,293,0.0,2.0,84,0.00,,,0.05,Wunderground v.1.15,2013-03-09 01:25:00,
2013-03-08 20:34:00,30.5,26.2,30.40,WNW,293,0.0,2.0,84,0.00,,,0.05,Wunderground v.1.15,2013-03-09 01:34:00,
2013-03-08 20:44:00,30.0,26.0,30.40,WNW,293,0.0,2.0,85,0.00,,,0.05,Wunderground v.1.15,2013-03-09 01:44:00,
2013-03-08 20:50:00,29.9,26.2,30.41,WNW,293,0.0,2.0,86,0.00,,,0.05,Wunderground v.1.15,2013-03-09 01:50:00,
2013-03-08 20:59:00,29.7,26.3,30.41,WNW,293,0.0,2.0,87,0.00,,,0.05,Wunderground v.1.15,2013-03-09 01:59:00,
2013-03-08 21:10:00,29.5,26.4,30.41,WNW,293,0.0,2.0,88,0.00,,,0.05,Wunderground v.1.15,2013-03-09 02:10:00,
2013-03-08 21:19:00,29.1,26.3,30.41,WNW,293,0.0,2.0,89,0.00,,,0.05,Wunderground v.1.15,2013-03-09 02:19:00,
2013-03-08 21:29:00,28.9,26.3,30.40,WNW,293,0.0,2.0,90,0.00,,,0.05,Wunderground v.1.15,2013-03-09 02:29:00,
2013-03-08 21:35:00,28.8,26.2,30.40,WNW,293,0.0,2.0,90,0.00,,,0.05,Wunderground v.1.15,2013-03-09 02:35:00,
2013-03-08 21:40:00,28.6,26.0,30.40,WNW,293,0.0,2.0,90,0.00,,,0.05,Wunderground v.1.15,2013-03-09 02:40:00,
2013-03-08 21:49:00,28.4,26.1,30.40,WNW,293,0.0,2.0,91,0.00,,,0.05,Wunderground v.1.15,2013-03-09 02:49:00,
2013-03-08 21:59:00,28.5,26.5,30.39,WNW,293,0.0,2.0,92,0.00,,,0.05,Wunderground v.1.15,2013-03-09 02:59:00,
2013-03-08 22:05:00,28.5,26.2,30.39,WNW,293,0.0,2.0,91,0.00,,,0.05,Wunderground v.1.15,2013-03-09 03:05:00,
2013-03-08 22:14:00,28.1,25.8,30.39,WNW,293,0.0,2.0,91,0.00,,,0.05,Wunderground v.1.15,2013-03-09 03:14:00,
2013-03-08 22:20:00,28.1,26.1,30.39,WNW,293,0.0,2.0,92,0.00,,,0.05,Wunderground v.1.15,2013-03-09 03:20:00,
2013-03-08 22:29:00,28.1,26.3,30.39,WNW,293,0.0,2.0,93,0.00,,,0.05,Wunderground v.1.15,2013-03-09 03:29:00,
2013-03-08 22:39:00,28.0,26.2,30.38,WNW,293,0.0,2.0,93,0.00,,,0.05,Wunderground v.1.15,2013-03-09 03:39:00,
2013-03-08 22:45:00,28.0,26.2,30.38,WNW,293,0.0,2.0,93,0.00,,,0.05,Wunderground v.1.15,2013-03-09 03:45:00,
2013-03-08 22:54:00,28.1,26.6,30.39,WNW,293,0.0,2.0,94,0.00,,,0.05,Wunderground v.1.15,2013-03-09 03:54:00,
2013-03-08 23:05:00,28.0,26.5,30.39,WNW,293,0.0,2.0,94,0.00,,,0.05,Wunderground v.1.15,2013-03-09 04:05:00,
2013-03-08 23:14:00,28.0,26.5,30.39,NNW,329,0.0,2.0,94,0.00,,,0.05,Wunderground v.1.15,2013-03-09 04:14:00,
2013-03-08 23:24:00,27.8,26.3,30.39,NNW,329,0.0,2.0,94,0.00,,,0.05,Wunderground v.1.15,2013-03-09 04:24:00,
2013-03-08 23:34:00,27.4,25.9,30.39,NNW,328,0.0,2.0,94,0.00,,,0.05,Wunderground v.1.15,2013-03-09 04:34:00,
2013-03-08 23:40:00,27.5,26.0,30.39,NNW,329,0.0,2.0,94,0.00,,,0.05,Wunderground v.1.15,2013-03-09 04:40:00,
2013-03-08 23:49:00,27.4,25.9,30.39,NNW,328,0.0,2.0,94,0.00,,,0.05,Wunderground v.1.15,2013-03-09 04:49:00,
2013-03-08 23:59:00,27.0,25.8,30.39,NNW,329,0.0,2.0,95,0.00,,,0.05,Wunderground v.1.15,2013-03-09 04:59:00,